2025-138B

Last updated on Wed Jul 02 2025 00:02:08 GMT+0000 (Coordinated Universal Time)

1 64622U 25138B 25182.57930509 .00002103 00000+0 11743-3 0 9999 2 64622 97.4343 187.0909 0012613 279.7665 80.2125 15.14546147 737
UTC large
Height (km)
Speed (km/s)
/
Latitude / Longitude
Inclination (degrees)
Orbital Period (minutes)
Azimuth
Elevation
Range (km)
Doppler Factor

Next 0 passes for location: London (51.5072 / 0.1276)

Sorry there are no passes over London.